FW0954 Weather Reports


time (UTC)temp
C
wind
direction
speed
KPH
gust
KPH
rain 1hr
cm
rain 24hr
cm
rain mn
cm
humidity
%
barometer
mb
20260903171002 27 184 9.7 24.1 0.00 0.00 0.00 82 1014.5
20260903170003 27 179 8.0 22.5 0.00 0.00 0.00 83 1014.6
20260903165003 27 169 6.4 19.3 0.00 0.00 0.00 83 1014.5
20260903164503 27 164 6.4 20.9 0.00 0.00 0.00 83 1014.4
20260903164002 27 160 4.8 20.9 0.00 0.00 0.00 83 1014.4
20260903163002 27 170 6.4 19.3 0.00 0.00 0.00 84 1014.4
20260903162502 27 171 6.4 19.3 0.00 0.00 0.00 83 1014.4
20260903161503 27 177 4.8 12.9 0.00 0.00 0.00 83 1014.4
20260903161002 27 174 4.8 11.3 0.00 0.00 0.00 84 1014.3
20260903160502 27 176 4.8 12.9 0.00 0.00 0.00 84 1014.3
20260903160002 27 177 6.4 12.9 0.00 0.00 0.00 84 1014.2
20260903155502 27 174 4.8 14.5 0.00 0.00 0.00 84 1014.3
20260903155002 27 178 3.2 14.5 0.00 0.00 0.00 85 1014.2
20260903154502 27 175 4.8 14.5 0.00 0.00 0.00 86 1014.2
20260903154002 27 177 4.8 14.5 0.00 0.00 0.00 86 1014.1
20260903153002 27 177 6.4 16.1 0.00 0.00 0.00 87 1014.1
20260903152002 27 170 4.8 14.5 0.00 0.00 0.00 88 1014.2
20260903151002 26 169 4.8 14.5 0.00 0.00 0.00 88 1014.2
20260903150503 26 162 4.8 11.3 0.00 0.00 0.00 89 1014.2
20260903150002 26 161 3.2 9.7 0.00 0.00 0.00 89 1014.2
20260903145502 26 148 1.6 9.7 0.00 0.00 0.00 90 1014.2
20260903145003 26 150 3.2 9.7 0.00 0.00 0.00 90 1014.1
20260903144503 26 161 3.2 9.7 0.00 0.00 0.00 90 1014.2
20260903143502 26 169 3.2 14.5 0.00 0.00 0.00 90 1014.1
20260903143002 26 162 1.6 14.5 0.00 0.00 0.00 90 1014.1
20260903142503 26 159 3.2 12.9 0.00 0.00 0.00 90 1014.3
20260903141502 26 161 3.2 8.0 0.00 0.00 0.00 91 1014.2
20260903141002 26 167 3.2 11.3 0.00 0.00 0.00 92 1014.3
20260903140503 26 170 3.2 11.3 0.00 0.00 0.00 92 1014.3
20260903140003 26 172 1.6 8.0 0.00 0.00 0.00 93 1014.2
20260903135503 26 171 1.6 8.0 0.00 0.00 0.00 93 1014.3
20260903134503 26 166 3.2 9.7 0.00 0.00 0.00 93 1014.3
20260903133503 26 148 3.2 14.5 0.00 0.00 0.00 93 1014.2
20260903132502 26 159 3.2 12.9 0.00 0.00 0.00 93 1014.2
20260903132003 25 155 3.2 9.7 0.00 0.00 0.00 93 1014.2
20260903131002 25 132 1.6 6.4 0.00 0.00 0.00 93 1014.2
20260903130503 25 108 1.6 4.8 0.00 0.00 0.00 93 1014.1
20260903130003 25 185 1.6 6.4 0.00 0.00 0.00 93 1014.0
20260903125502 25 159 1.6 6.4 0.00 0.00 0.00 93 1013.8
20260903124502 25 161 3.2 9.7 0.00 0.00 0.00 93 1013.9
20260903124003 25 162 3.2 9.7 0.00 0.00 0.00 93 1013.8
20260903123503 25 160 1.6 8.0 0.00 0.00 0.00 94 1013.9
20260903123003 25 152 1.6 6.4 0.00 0.00 0.00 94 1014.0
20260903122002 25 166 1.6 6.4 0.00 0.00 0.00 94 1013.8
20260903121502 25 172 1.6 8.0 0.00 0.00 0.00 94 1013.8
20260903121003 25 164 1.6 9.7 0.00 0.00 0.00 94 1013.7
20260903120503 25 160 3.2 9.7 0.00 0.00 0.00 94 1013.7
20260903120002 25 160 3.2 8.0 0.00 0.00 0.00 94 1013.7
20260903115503 25 162 1.6 11.3 0.00 0.00 0.00 94 1013.7
20260903115003 25 167 1.6 11.3 0.00 0.00 0.00 94 1013.6
20260903114502 25 167 3.2 9.7 0.00 0.00 0.00 94 1013.5
20260903114003 25 172 1.6 6.4 0.00 0.00 0.00 94 1013.5
20260903112003 25 172 1.6 6.4 0.00 0.00 0.00 94 1013.5
20260903111503 25 169 0.0 3.2 0.00 0.00 0.00 94 1013.5
20260903111002 25 167 0.0 4.8 0.00 0.00 0.00 94 1013.5
20260903110503 25 161 0.0 4.8 0.00 0.00 0.00 94 1013.5
20260903110002 25 150 0.0 3.2 0.00 0.00 0.00 94 1013.5
20260903105003 25 169 0.0 1.6 0.00 0.00 0.00 94 1013.4
20260903104003 25 165 1.6 6.4 0.00 0.00 0.00 94 1013.4
20260903103503 25 166 1.6 6.4 0.00 0.00 0.00 94 1013.4
20260903103002 25 164 1.6 6.4 0.00 0.00 0.00 94 1013.3
20260903102503 24 163 0.0 4.8 0.00 0.00 0.00 94 1013.3
20260903102002 24 169 0.0 3.2 0.00 0.00 0.00 94 1013.3
20260903101003 24 168 0.0 4.8 0.00 0.00 0.00 94 1013.2
20260903100503 24 169 0.0 3.2 0.00 0.00 0.00 94 1013.2
20260903095003 24 173 1.6 8.0 0.00 0.00 0.00 93 1013.4
20260903094003 24 163 1.6 6.4 0.00 0.00 0.00 93 1013.3
20260903093003 25 165 1.6 8.0 0.00 0.00 0.00 93 1013.3
20260903092503 25 165 1.6 8.0 0.00 0.00 0.00 92 1013.5
20260903092003 25 161 1.6 6.4 0.00 0.00 0.00 92 1013.4
20260903090503 25 169 1.6 8.0 0.00 0.00 0.00 91 1013.3
20260903090004 25 184 1.6 9.7 0.00 0.00 0.00 91 1013.2
20260903085503 24 172 1.6 9.7 0.00 0.00 0.00 91 1013.1
20260903085003 24 205 3.2 8.0 0.00 0.00 0.00 92 1013.1
20260903084503 24 275 3.2 9.7 0.00 0.00 0.00 92 1012.9
20260903084003 24 278 3.2 12.9 0.00 0.00 0.00 92 1012.7
20260903083502 24 268 3.2 12.9 0.00 0.00 0.00 92 1012.7
20260903082003 25 167 1.6 8.0 0.00 0.00 0.00 93 1013.1
20260903080003 25 169 0.0 4.8 0.00 0.00 0.00 92 1012.9
20260903075503 25 166 0.0 3.2 0.00 0.00 0.00 92 1012.9
20260903074503 25 184 1.6 6.4 0.00 0.00 0.00 91 1012.7
20260903074003 25 184 1.6 6.4 0.00 0.00 0.00 91 1012.7
20260903073503 25 162 0.0 6.4 0.00 0.00 0.00 91 1012.7
20260903073003 25 117 0.0 4.8 0.00 0.00 0.00 91 1012.7
20260903072503 25 99 0.0 4.8 0.00 0.00 0.00 90 1012.8
20260903072003 25 98 0.0 3.2 0.00 0.00 0.00 90 1012.7
20260903071503 25 99 0.0 3.2 0.00 0.00 0.00 89 1012.9
20260903071003 26 98 0.0 3.2 0.00 0.00 0.00 89 1012.9
20260903070503 26 90 0.0 3.2 0.00 0.00 0.00 88 1013.0
20260903070004 26 96 1.6 9.7 0.00 0.00 0.00 88 1013.0
20260903065503 26 99 1.6 9.7 0.00 0.00 0.00 87 1012.9
20260903065003 26 104 1.6 9.7 0.00 0.00 0.00 86 1012.9
20260903064503 26 101 1.6 6.4 0.00 0.00 0.00 85 1012.9
20260903064003 26 97 0.0 4.8 0.00 0.00 0.00 85 1013.0
20260903062504 26 114 0.0 1.6 0.00 0.00 0.00 85 1012.8
20260903062003 26 119 0.0 4.8 0.00 0.00 0.00 85 1012.7
20260903061503 26 123 0.0 4.8 0.00 0.00 0.00 85 1012.8
20260903061003 26 130 0.0 1.6 0.00 0.00 0.00 85 1012.9
20260903060503 26 86 0.0 4.8 0.00 0.00 0.00 85 1012.9
20260903060004 26 105 0.0 4.8 0.00 0.00 0.00 85 1013.1
20260903055503 26 111 0.0 6.4 0.00 0.00 0.00 85 1013.1
20260903055004 26 85 0.0 6.4 0.00 0.00 0.00 84 1013.2
20260903054504 26 88 1.6 4.8 0.00 0.00 0.00 84 1013.4
20260903054003 26 101 0.0 4.8 0.00 0.00 0.00 83 1013.4
20260903053503 26 121 0.0 6.4 0.00 0.00 0.00 83 1013.5
20260903053003 26 106 1.6 6.4 0.00 0.00 0.00 83 1013.5
20260903052504 26 89 1.6 8.0 0.00 0.00 0.00 83 1013.5
20260903052003 26 83 3.2 11.3 0.00 0.00 0.00 83 1013.5
20260903051504 26 87 1.6 11.3 0.00 0.00 0.00 82 1013.6
20260903051003 27 85 1.6 11.3 0.00 0.00 0.00 82 1013.5
20260903050503 27 71 1.6 11.3 0.00 0.00 0.00 81 1013.5
20260903050004 27 69 1.6 14.5 0.00 0.00 0.00 80 1013.7
20260903045503 27 85 0.0 14.5 0.00 0.00 0.00 80 1013.8
20260903045004 27 89 1.6 9.7 0.00 0.00 0.00 80 1013.9
20260903044001 27 83 1.6 6.4 0.00 0.00 0.00 79 1013.8
20260903043501 27 88 1.6 8.0 0.00 0.00 0.00 79 1013.7
20260903043001 27 90 1.6 8.0 0.00 0.00 0.00 78 1013.7
20260903041501 27 83 3.2 14.5 0.00 0.00 0.00 76 1013.6
20260903040001 28 81 1.6 11.3 0.00 0.00 0.00 76 1013.8
20260903035501 28 82 1.6 11.3 0.00 0.00 0.00 76 1013.7
20260903035002 28 91 1.6 11.3 0.00 0.00 0.00 75 1013.8
20260903034501 28 111 1.6 9.7 0.00 0.00 0.00 75 1013.7
20260903034001 28 114 1.6 6.4 0.00 0.00 0.00 75 1013.7
20260903033501 28 94 1.6 9.7 0.00 0.00 0.00 74 1013.7
20260903033002 28 90 1.6 9.7 0.00 0.00 0.00 74 1013.5
20260903032501 28 97 1.6 9.7 0.00 0.00 0.00 74 1013.6
20260903032001 28 90 1.6 9.7 0.00 0.00 0.00 74 1013.6
20260903031501 28 83 1.6 9.7 0.00 0.00 0.00 73 1013.5
20260903031002 28 85 1.6 9.7 0.00 0.00 0.00 73 1013.4
20260903030502 28 90 1.6 8.0 0.00 0.00 0.00 72 1013.5
20260903030001 29 90 1.6 8.0 0.00 0.00 0.00 72 1013.5
20260903025501 29 90 3.2 8.0 0.00 0.00 0.00 71 1013.5
20260903025001 29 87 1.6 9.7 0.00 0.00 0.00 71 1013.5
20260903024502 29 90 3.2 9.7 0.00 0.00 0.00 70 1013.5
20260903023502 30 103 3.2 14.5 0.00 0.00 0.00 69 1013.4
20260903023001 30 104 3.2 16.1 0.00 0.00 0.00 69 1013.3
20260903022501 30 103 4.8 16.1 0.00 0.00 0.00 68 1013.4
20260903022001 30 109 3.2 12.9 0.00 0.00 0.00 68 1013.4
20260903021501 30 115 3.2 12.9 0.00 0.00 0.00 68 1013.2
20260903021001 30 109 3.2 12.9 0.00 0.00 0.00 68 1013.2
20260903020501 30 110 3.2 9.7 0.00 0.00 0.00 67 1013.1
20260903020001 31 110 3.2 14.5 0.00 0.00 0.00 67 1013.0
20260903015502 31 107 3.2 16.1 0.00 0.00 0.00 66 1012.9
20260903015002 31 103 3.2 16.1 0.00 0.00 0.00 65 1012.9
20260903014501 31 100 1.6 8.0 0.00 0.00 0.00 65 1012.8
20260903014001 31 116 1.6 8.0 0.00 0.00 0.00 66 1012.5
20260903013502 31 117 1.6 8.0 0.00 0.00 0.00 65 1012.4
20260903013002 32 96 1.6 8.0 0.00 0.00 0.00 64 1012.3
20260903012502 32 93 1.6 12.9 0.00 0.00 0.00 63 1012.3
20260903012002 32 93 1.6 12.9 0.00 0.00 0.00 63 1012.1
20260903011002 32 81 1.6 9.7 0.00 0.00 0.00 60 1012.0
20260903010502 32 85 1.6 6.4 0.00 0.00 0.00 59 1012.0
20260903010002 33 97 1.6 11.3 0.00 0.00 0.00 58 1011.9
20260903005002 33 90 1.6 11.3 0.00 0.00 0.00 57 1011.8
20260903004502 33 85 1.6 8.0 0.00 0.00 0.00 57 1011.9
20260903004002 33 79 1.6 6.4 0.00 0.00 0.00 58 1011.9
20260903003502 33 90 0.0 4.8 0.00 0.00 0.00 58 1011.8
20260903003002 33 92 1.6 9.7 0.00 0.00 0.00 58 1011.7
20260903002502 33 94 1.6 9.7 0.00 0.00 0.00 58 1011.7
20260903002002 33 91 1.6 4.8 0.00 0.00 0.00 58 1011.6
20260903001001 33 90 0.0 4.8 0.00 0.00 0.00 58 1011.5
20260903000002 34 91 0.0 4.8 0.00 0.00 0.00 57 1011.6
20260902235501 34 93 0.0 6.4 0.00 0.00 0.00 56 1011.5
20260902234002 34 84 1.6 8.0 0.00 0.00 0.00 56 1011.5
20260902233502 35 91 1.6 9.7 0.00 0.00 0.00 56 1011.5
20260902232501 35 88 1.6 6.4 0.00 0.00 0.00 55 1011.4
20260902232002 35 96 1.6 6.4 0.00 0.00 0.00 55 1011.5
20260902231502 35 101 1.6 6.4 0.00 0.00 0.00 55 1011.5
20260902231002 35 99 1.6 8.0 0.00 0.00 0.00 54 1011.5
20260902230502 35 100 1.6 8.0 0.00 0.00 0.00 55 1011.6
20260902230002 35 94 1.6 6.4 0.00 0.00 0.00 55 1011.5
20260902225501 35 92 0.0 4.8 0.00 0.00 0.00 54 1011.4
20260902225001 35 90 0.0 6.4 0.00 0.00 0.00 52 1011.4
20260902224501 36 87 1.6 6.4 0.00 0.00 0.00 52 1011.4
20260902224002 36 84 1.6 8.0 0.00 0.00 0.00 53 1011.3
20260902223502 36 81 1.6 8.0 0.00 0.00 0.00 52 1011.2
20260902223002 37 82 1.6 8.0 0.00 0.00 0.00 52 1011.3
20260902222002 38 92 0.0 6.4 0.00 0.00 0.00 48 1011.2
20260902221502 38 108 1.6 9.7 0.00 0.00 0.00 47 1011.1
20260902221002 38 105 1.6 11.3 0.00 0.00 0.00 47 1011.1
20260902220502 38 95 1.6 11.3 0.00 0.00 0.00 46 1011.3
20260902220002 38 104 1.6 9.7 0.00 0.00 0.00 47 1011.2
20260902215502 38 112 1.6 4.8 0.00 0.00 0.00 48 1011.2
20260902215001 38 118 0.0 4.8 0.00 0.00 0.00 47 1011.3
20260902214502 38 118 0.0 4.8 0.00 0.00 0.00 46 1011.3
20260902214001 38 97 1.6 4.8 0.00 0.00 0.00 46 1011.5
20260902213502 38 91 1.6 6.4 0.00 0.00 0.00 47 1011.5
20260902213002 38 103 1.6 6.4 0.00 0.00 0.00 47 1011.6
20260902212501 38 92 1.6 6.4 0.00 0.00 0.00 46 1011.6
20260902212002 38 89 1.6 8.0 0.00 0.00 0.00 47 1011.7
20260902211502 38 91 1.6 8.0 0.00 0.00 0.00 47 1011.7
20260902211002 38 84 0.0 6.4 0.00 0.00 0.00 48 1011.7
20260902210502 38 116 1.6 6.4 0.00 0.00 0.00 48 1011.8
20260902205502 38 105 1.6 6.4 0.00 0.00 0.00 47 1011.8
20260902205002 38 102 1.6 6.4 0.00 0.00 0.00 47 1011.8
20260902204002 38 110 1.6 9.7 0.00 0.00 0.00 48 1012.0
20260902203002 38 110 0.0 3.2 0.00 0.00 0.00 47 1012.2
20260902202503 38 53 0.0 1.6 0.00 0.00 0.00 47 1012.5
20260902202002 37 72 0.0 4.8 0.00 0.00 0.00 48 1012.4
20260902201502 37 94 1.6 6.4 0.00 0.00 0.00 48 1012.6
20260902201002 37 99 1.6 6.4 0.00 0.00 0.00 48 1012.6
20260902200502 37 103 1.6 8.0 0.00 0.00 0.00 47 1012.8
20260902200003 38 107 1.6 8.0 0.00 0.00 0.00 47 1013.0
20260902195502 38 128 1.6 8.0 0.00 0.00 0.00 47 1013.1
20260902195002 38 118 1.6 8.0 0.00 0.00 0.00 47 1013.1
20260902194001 38 144 0.0 4.8 0.00 0.00 0.00 47 1013.3
20260902193502 38 270 1.6 4.8 0.00 0.00 0.00 47 1013.3
20260902193002 37 49 1.6 6.4 0.00 0.00 0.00 49 1013.3
20260902191002 37 125 1.6 11.3 0.00 0.00 0.00 48 1013.7
20260902190502 37 120 1.6 11.3 0.00 0.00 0.00 47 1013.7
20260902190002 37 99 1.6 8.0 0.00 0.00 0.00 48 1013.8
20260902185502 37 103 1.6 8.0 0.00 0.00 0.00 49 1013.9
20260902185002 37 98 1.6 4.8 0.00 0.00 0.00 50 1013.9
20260902184502 37 117 1.6 6.4 0.00 0.00 0.00 50 1014.0
20260902183503 37 80 1.6 6.4 0.00 0.00 0.00 50 1014.1
20260902183002 36 97 1.6 6.4 0.00 0.00 0.00 50 1014.3
20260902182502 36 110 1.6 4.8 0.00 0.00 0.00 51 1014.3
20260902182002 36 94 1.6 6.4 0.00 0.00 0.00 52 1014.4
20260902181502 36 88 1.6 6.4 0.00 0.00 0.00 53 1014.6
20260902181002 36 83 1.6 6.4 0.00 0.00 0.00 53 1014.8
20260902180502 36 90 1.6 8.0 0.00 0.00 0.00 54 1014.9
20260902180005 36 94 1.6 8.0 0.00 0.00 0.00 54 1015.0
20260902175502 36 98 0.0 4.8 0.00 0.00 0.00 55 1015.3
20260902175002 36 106 0.0 4.8 0.00 0.00 0.00 55 1015.3
20260902174502 35 82 0.0 1.6 0.00 0.00 0.00 57 1015.4
20260902173002 35 328 0.0 4.8 0.00 0.00 0.00 58 1015.5
20260902172502 35 74 0.0 1.6 0.00 0.00 0.00 59 1015.5
20260902172002 35 109 0.0 4.8 0.00 0.00 0.00 59 1015.6